Regional Weather Roundup
Issued by NWS

Home | Current Version | Previous Version | Graphics & Text | Print | Product List | Glossary On
Versions: 1 2 3 4 5 6 7 8 9 10 11 12 13 14 15 16 17 18 19 20 21 22 23 24 25 26 27 28 29 30 31 32 33 34 35 36 37 38 39 40 41 42 43 44 45 46 47 48 49 50
000
ASUS43 KMKX 191220
RWRWI

WISCONSIN REGIONAL WEATHER ROUNDUP
NATIONAL WEATHER SERVICE MILWAUKEE/SULLIVAN WI
600 AM CST MON FEB 19 2018

NOTE: "FAIR" INDICATES FEW OR NO CLOUDS BELOW 12,000 FEET WITH NO
SIGNIFICANT WEATHER AND/OR OBSTRUCTIONS TO VISIBILITY.

WIZ001-002-006>008-014>016-023>028-191300-
NORTHWEST WISCONSIN

CITY           SKY/WX    TMP DP  RH WIND       PRES   REMARKS
SUPERIOR ARPT  CLOUDY    16  10  75 N6        30.02R WCI   8
6HR MIN TEMP:  16; 6HR MAX TEMP:  20;

ASHLAND        LGT SNOW  19  16  88 NE15      29.98R VSB 3/4 WCI   5
6HR MIN TEMP:  18; 6HR MAX TEMP:  21; 6HR PCP: TRACE;

HAYWARD        FLURRIES  20  15  81 NE16      29.88F WCI   6
6HR MIN TEMP:  20; 6HR MAX TEMP:  26; 6HR PCP: TRACE;

SIREN          CLOUDY    19  16  85 N10       29.92R WCI   8
6HR MIN TEMP:  19; 6HR MAX TEMP:  26;

CUMBERLAND     CLOUDY    21  18  86 NE17G23   29.83F WCI   7
RICE LAKE      CLOUDY    23  20  88 N15       29.85F WCI  10
6HR MIN TEMP:  23; 6HR MAX TEMP:  30;

CHETEK         CLOUDY    26  21  83 NE8G16    29.83F WCI  17
6HR MIN TEMP:  26; 6HR MAX TEMP:  32;

LADYSMITH      CLOUDY    26  21  82 NE14      29.86S WCI  14
6HR MIN TEMP:  26; 6HR MAX TEMP:  34;

EAU CLAIRE     CLOUDY    29  24  82 NE9G21    29.79R WCI  20
6HR MIN TEMP:  22; 6HR MAX TEMP:  33;

MENOMONIE      CLOUDY    30  25  81 N10       29.82R WCI  21
6HR MIN TEMP:  28; 6HR MAX TEMP:  33;

NEW RICHMOND   CLOUDY    24  19  79 NE18      29.84R WCI  10
6HR MIN TEMP:  24; 6HR MAX TEMP:  26;

OSCEOLA        CLOUDY    24  19  82 N13G18    29.89R WCI  12
6HR MIN TEMP:  24; 6HR MAX TEMP:  28;

$$

WIZ003>005-009-010-017-018-191300-
NORTH CENTRAL WISCONSIN

CITY           SKY/WX    TMP DP  RH WIND       PRES   REMARKS
MANITOWISH WTR CLOUDY    17  17 100 N8        29.89R WCI   7
6HR MIN TEMP:  17; 6HR MAX TEMP:  31;

ARBOR VITAE    CLOUDY    22  20  92 N9        29.87R WCI  11
6HR MIN TEMP:  22; 6HR MAX TEMP:  34;

WOODRUFF       CLOUDY    22  20  92 N9        29.87R WCI  11
6HR MIN TEMP:  22; 6HR MAX TEMP:  34;

RHINELANDER    CLOUDY    28  24  85 N9        29.83R WCI  19
6HR MIN TEMP:  25; 6HR MAX TEMP:  32;

EAGLE RIVER    CLOUDY    21  21  99 N12       29.87R FOG     WCI   9
6HR MIN TEMP:  22; 6HR MAX TEMP:  32;

LAND O LAKES   CLOUDY    20  19  95 N9        29.89R FOG     WCI   9
6HR MIN TEMP:  20; 6HR MAX TEMP:  33;

PHILLIPS       CLOUDY    22  19  90 N12       29.86R WCI  10
6HR MIN TEMP:  22; 6HR MAX TEMP:  33;

TOMAHAWK       CLOUDY    29  24  82 N6        29.83R WCI  23
6HR MIN TEMP:  22; 6HR MAX TEMP:  31;

MEDFORD        CLOUDY    26  24  91 N7        29.79F WCI  19
6HR MIN TEMP:  19; 6HR MAX TEMP:  31;

MERRILL        CLOUDY    23  23  98 E3        29.81F FOG
6HR MIN TEMP:  21; 6HR MAX TEMP:  32;

$$

WIZ029-030-035-036-043>047-191300-
CENTRAL WISCONSIN

CITY           SKY/WX    TMP DP  RH WIND       PRES   REMARKS
WAUSAU         FAIR      20  20 100 NE3       29.77F FOG
6HR MIN TEMP:  20; 6HR MAX TEMP:  30;

MOSINEE        PTCLDY    25  25 100 NE8       29.78F FOG     WCI  16
MARSHFIELD     FAIR      25  25 100 NE7       29.75F FOG     WCI  17
6HR MIN TEMP:  23; 6HR MAX TEMP:  30;

STEVENS POINT  FAIR      20  20 100 E5        29.78F FOG     WCI  14
6HR MIN TEMP:  18; 6HR MAX TEMP:  29;

WAUPACA        MOCLDY    28  26  92 CALM      29.83R FOG
6HR MIN TEMP:  27; 6HR MAX TEMP:  37;

WAUTOMA        CLOUDY    27  26  96 CALM      29.81R
6HR MIN TEMP:  24; 6HR MAX TEMP:  35;

WISC RAPIDS    FAIR      27  23  85 E5        29.79F WCI  22
6HR MIN TEMP:  23; 6HR MAX TEMP:  32;

CAMP DOUGLAS   CLOUDY    34  30  84 E6        29.77R WCI  29
6HR MIN TEMP:  34; 6HR MAX TEMP:  38;

$$

WIZ011>013-019>022-031-037>040-048>050-191300-
NORTHEAST WISCONSIN

CITY           SKY/WX    TMP DP  RH WIND       PRES   REMARKS
ANTIGO         FAIR      17  16  96 NE5       29.83R FOG     WCI  10
6HR MIN TEMP:  15; 6HR MAX TEMP:  27;

SHAWANO        FAIR      23  21  92 CALM      29.85R FOG
6HR MIN TEMP:  24; 6HR MAX TEMP:  35;

OCONTO         CLOUDY    29  27  93 CALM      29.85R
6HR MIN TEMP:  28; 6HR MAX TEMP:  33;

STURGEON BAY   CLOUDY    34  32  92 MISG      29.86R
6HR MIN TEMP:  34; 6HR MAX TEMP:  35;

GREEN BAY      CLOUDY    32  28  85 CALM      29.85R
6HR MIN TEMP:  32; 6HR MAX TEMP:  35;

MANITOWOC      CLOUDY    34  31  88 CALM      29.85R FOG
6HR MIN TEMP:  32; 6HR MAX TEMP:  34;

APPLETON       CLOUDY    30  27  86 CALM      29.81R
CLINTONVILLE   FAIR      24  22  93 CALM      29.84R FOG
6HR MIN TEMP:  21; 6HR MAX TEMP:  34;

OSHKOSH        CLOUDY    36  31  82 S6        29.82R WCI  31
6HR MIN TEMP:  30; 6HR MAX TEMP:  37;

$$

WIZ032>034-041-042-053>061-191300-
SOUTHWEST WISCONSIN

CITY           SKY/WX    TMP DP  RH WIND       PRES   REMARKS
LA CROSSE      CLOUDY    33  29  85 CALM      29.77R
6HR MIN TEMP:  31; 6HR MAX TEMP:  40;

SPARTA         CLOUDY    29  27  92 CALM      29.79R
6HR MIN TEMP:  28; 6HR MAX TEMP:  39;

VIROQUA        CLOUDY    35  32  87 SE7       29.74S WCI  30
6HR MIN TEMP:  35; 6HR MAX TEMP:  37;

BOSCOBEL       FAIR      33  28  81 CALM      29.79R
6HR MIN TEMP:  33; 6HR MAX TEMP:  39;

PRAIRIE DU CHI MOCLDY    37  30  74 E6        29.76S WCI  33
6HR MIN TEMP:  37; 6HR MAX TEMP:  41;

PLATTEVILLE    FAIR      35  33  94 SE7       29.78R WCI  29
6HR MIN TEMP:  34; 6HR MAX TEMP:  37;

$$

WIZ056-057-062-063-064-067-068-191300-
SOUTH CENTRAL WISCONSIN

CITY           SKY/WX    TMP DP  RH WIND       PRES   REMARKS
REEDSBURG      CLOUDY    37  31  79 CALM      29.77S
6HR MIN TEMP:  35; 6HR MAX TEMP:  38;

BARABOO/DELLS  CLOUDY    37  31  80 S6        29.78R WCI  32
6HR MIN TEMP:  36; 6HR MAX TEMP:  38;

LONE ROCK      NOT AVBL
MINERAL POINT  FAIR      34  34 100 SE6       29.77S WCI  29
MADISON        MOCLDY    35  32  88 S5        29.80F WCI  31
6HR MIN TEMP:  34; 6HR MAX TEMP:  37;

MIDDLETON      FAIR      37  33  86 S3        29.80S
6HR MIN TEMP:  37; 6HR MAX TEMP:  38;

WATERTOWN      MOCLDY    35  34  96 CALM      29.81F
6HR MIN TEMP:  35; 6HR MAX TEMP:  37;

MONROE         FAIR      34  34 100 S12       29.80R WCI  25
JANESVILLE     FAIR      36  36 100 S5        29.83R WCI  32
$$

WIZ051-052-058>065-066-070>072-191300-
SOUTHEAST WISCONSIN

CITY           SKY/WX    TMP DP  RH WIND       PRES   REMARKS
MILWAUKEE      MOCLDY    40  34  79 SW6       29.83R
6HR MIN TEMP:  33; 6HR MAX TEMP:  40;

WAUKESHA       CLOUDY    36  32  87 SW5       29.83S WCI  32
MILWAUKEE/TIMM CLOUDY    37  32  81 SW3       29.83F
RACINE         MOCLDY    37  34  89 S3        29.85S
6HR MIN TEMP:  35; 6HR MAX TEMP:  40;

BURLINGTON     FAIR      36  33  89 S5        29.82F WCI  32
6HR MIN TEMP:  36; 6HR MAX TEMP:  39;

KENOSHA        FAIR      38  34  85 SW7       29.83F WCI  33
6HR MIN TEMP:  38; 6HR MAX TEMP:  41; 6HR PCP: TRACE;

FOND DU LAC    CLOUDY    39  31  72 S8        29.82R WCI  33
6HR MIN TEMP:  35; 6HR MAX TEMP:  39;

SHEBOYGAN      CLOUDY    33  32  96 CALM      29.83R
6HR MIN TEMP:  31; 6HR MAX TEMP:  34;

WEST BEND      CLOUDY    37  34  87 SW3       29.82S
JUNEAU         CLOUDY    34  32  91 SE5       29.82F WCI  30
6HR MIN TEMP:  34; 6HR MAX TEMP:  36;

$$

LSZ147-162-191300-
LAKE SUPERIOR

STATION/POSITION TIME  TEMP    WIND        PRES    WAVE
                       AIR SEA DIR/SP/G            HT/PER
                 (UTC) (F)     (DEG/KT/KT) (MB)    (FT/S)
DEVILS ISLAND    1200   19      40/ 21/ 25 1017.2F
SAXON HARBOR     1200   20      50/ 15/ 19 1014.9
$$

LMZ867-665-643>646-191300-
LAKE MICHIGAN

STATION/POSITION TIME  TEMP    WIND        PRES    WAVE
                       AIR SEA DIR/SP/G            HT/PER



USA.gov is the U.S. government's official web portal to all federal, state and local government web resources and services.